USA 81

Last updated on Mon Sep 21 2026 00:02:08 GMT+0000 (Coordinated Universal Time)

1 21949U 92023A 26263.41835562 .00000115 00000+0 35038-4 0 9993 2 21949 85.0113 19.0272 0002574 103.9734 256.1745 14.32418637122667
UTC large
Height (km)
Speed (km/s)
/
Latitude / Longitude
Inclination (degrees)
Orbital Period (minutes)
Azimuth
Elevation
Range (km)
Doppler Factor

Next 0 passes for location: London (51.5072 / 0.1276)

No passes found over London.
USA 81